When you browse on this site, cookies collect data to enhance your experience and personalize the content and advertising you see.
Visit our Privacy Policy to learn more. By continuing to use the site, you agree to this use of cookies and data.
  • en France
  • Liste des pays
  • À 7 jours
  • Température de l'eau
  • Carte satellitaire
  • Carte météo
  • Widgets météo
  • user-avatar
    Se connecter

    Météo par heure à Ushakova

    Ce jour, 23 Avril, Mardi

    Heure Température Précipitation Vent Pression Humidité
    00:00 +10°C° 0 mm 1 m/s 751 mmHg 54%
    01:00 +9°C° 0 mm 1 m/s 752 mmHg 55%
    02:00 +8°C° 0 mm 0 m/s 751 mmHg 54%
    03:00 +8°C° 0 mm 0 m/s 751 mmHg 55%
    04:00 +8°C° 0 mm 1 m/s 752 mmHg 56%
    05:00 +8°C° 0 mm 1 m/s 752 mmHg 58%
    06:00 +10°C° 0 mm 1 m/s 752 mmHg 54%
    07:00 +12°C° 0 mm 1 m/s 752 mmHg 50%
    08:00 +14°C° 0 mm 1 m/s 752 mmHg 46%
    09:00 +16°C° 0 mm 2 m/s 752 mmHg 42%
    10:00 +17°C° 0 mm 2 m/s 752 mmHg 38%
    11:00 +19°C° 0 mm 2 m/s 752 mmHg 34%
    12:00 +19°C° 0 mm 2 m/s 752 mmHg 34%
    13:00 +19°C° 0 mm 3 m/s 752 mmHg 34%
    14:00 +19°C° 0 mm 3 m/s 752 mmHg 34%
    15:00 +19°C° 0 mm 2 m/s 752 mmHg 37%
    16:00 +19°C° 0 mm 2 m/s 751 mmHg 40%
    17:00 +19°C° 0 mm 2 m/s 751 mmHg 43%
    18:00 +17°C° 0 mm 2 m/s 751 mmHg 47%
    19:00 +15°C° 0 mm 2 m/s 751 mmHg 50%
    20:00 +13°C° 0 mm 2 m/s 751 mmHg 54%
    21:00 +13°C° 0 mm 2 m/s 751 mmHg 56%
    22:00 +12°C° 0 mm 2 m/s 751 mmHg 58%
    23:00 +12°C° 0 mm 2 m/s 752 mmHg 61%

    Demain, 24 Avril, Mercredi

    Heure Température Précipitation Vent Pression Humidité
    00:00 +12°C° 0 mm 2 m/s 752 mmHg 61%
    01:00 +12°C° 0 mm 2 m/s 752 mmHg 62%
    02:00 +12°C° 0 mm 2 m/s 752 mmHg 63%
    03:00 +10°C° 0 mm 2 m/s 752 mmHg 65%
    04:00 +10°C° 0 mm 2 m/s 752 mmHg 68%
    05:00 +9°C° 0 mm 2 m/s 752 mmHg 71%
    06:00 +12°C° 0 mm 2 m/s 752 mmHg 65%
    07:00 +14°C° 0 mm 2 m/s 752 mmHg 60%
    08:00 +16°C° 0 mm 2 m/s 752 mmHg 55%
    09:00 +17°C° 0 mm 3 m/s 752 mmHg 49%
    10:00 +19°C° 0 mm 3 m/s 752 mmHg 44%
    11:00 +20°C° 0 mm 3 m/s 752 mmHg 38%
    12:00 +21°C° 0 mm 3 m/s 752 mmHg 38%
    13:00 +21°C° 0 mm 3 m/s 752 mmHg 37%
    14:00 +21°C° 0 mm 3 m/s 752 mmHg 36%
    15:00 +21°C° 0 mm 3 m/s 752 mmHg 39%
    16:00 +21°C° 0 mm 2 m/s 751 mmHg 42%
    17:00 +20°C° 0 mm 2 m/s 751 mmHg 45%
    18:00 +19°C° 0 mm 2 m/s 751 mmHg 49%
    19:00 +17°C° 0 mm 2 m/s 751 mmHg 53%
    20:00 +15°C° 0 mm 2 m/s 751 mmHg 56%
    21:00 +14°C° 0 mm 1 m/s 751 mmHg 58%
    22:00 +14°C° 0 mm 1 m/s 751 mmHg 60%
    23:00 +13°C° 0 mm 1 m/s 751 mmHg 62%

    Après-demain, 25 Avril, Jeudi

    Heure Température Précipitation Vent Pression Humidité
    00:00 +13°C° 0 mm 1 m/s 751 mmHg 63%
    01:00 +12°C° 0 mm 1 m/s 751 mmHg 65%
    02:00 +12°C° 0 mm 1 m/s 752 mmHg 66%
    03:00 +12°C° 0 mm 1 m/s 752 mmHg 67%
    04:00 +11°C° 0 mm 1 m/s 752 mmHg 69%
    05:00 +11°C° 0 mm 1 m/s 752 mmHg 70%
    06:00 +13°C° 0 mm 1 m/s 752 mmHg 64%
    07:00 +15°C° 0 mm 1 m/s 752 mmHg 58%
    08:00 +18°C° 0 mm 1 m/s 752 mmHg 52%
    09:00 +18°C° 0 mm 2 m/s 752 mmHg 48%
    10:00 +20°C° 0 mm 2 m/s 752 mmHg 43%
    11:00 +21°C° 0 mm 2 m/s 752 mmHg 39%
    12:00 +23°C° 0 mm 2 m/s 751 mmHg 38%
    13:00 +23°C° 0 mm 2 m/s 751 mmHg 36%
    14:00 +24°C° 0 mm 1 m/s 751 mmHg 35%
    15:00 +24°C° 0 mm 1 m/s 751 mmHg 37%
    16:00 +23°C° 0 mm 1 m/s 750 mmHg 40%
    17:00 +23°C° 0 mm 1 m/s 750 mmHg 43%
    18:00 +21°C° 0 mm 1 m/s 750 mmHg 46%
    19:00 +19°C° 0 mm 1 m/s 750 mmHg 50%
    20:00 +18°C° 0 mm 1 m/s 750 mmHg 53%
    21:00 +16°C° 0.1 mm 1 m/s 750 mmHg 55%
    22:00 +16°C° 0.1 mm 1 m/s 750 mmHg 57%
    23:00 +15°C° 0.1 mm 0 m/s 750 mmHg 60%

    26 Avril, Vendredi

    Heure Température Précipitation Vent Pression Humidité
    00:00 +15°C° 0.5 mm 1 m/s 750 mmHg 64%
    01:00 +14°C° 0.5 mm 1 m/s 750 mmHg 69%
    02:00 +13°C° 0.5 mm 1 m/s 750 mmHg 73%
    03:00 +13°C° 0.4 mm 1 m/s 750 mmHg 75%
    04:00 +13°C° 0.4 mm 1 m/s 750 mmHg 78%
    05:00 +13°C° 0.4 mm 1 m/s 750 mmHg 80%
    06:00 +14°C° 0.2 mm 1 m/s 750 mmHg 75%
    07:00 +16°C° 0.2 mm 1 m/s 750 mmHg 70%
    08:00 +18°C° 0.2 mm 1 m/s 750 mmHg 65%
    09:00 +18°C° 0.1 mm 2 m/s 750 mmHg 61%
    10:00 +19°C° 0.1 mm 2 m/s 750 mmHg 57%
    11:00 +20°C° 0.1 mm 3 m/s 749 mmHg 53%
    12:00 +21°C° 0.1 mm 3 m/s 749 mmHg 50%
    13:00 +21°C° 0.1 mm 2 m/s 749 mmHg 47%
    14:00 +23°C° 0.1 mm 2 m/s 749 mmHg 44%
    15:00 +21°C° 0.8 mm 2 m/s 748 mmHg 50%
    16:00 +20°C° 0.8 mm 2 m/s 748 mmHg 55%
    17:00 +20°C° 0.8 mm 2 m/s 748 mmHg 60%
    18:00 +19°C° 0.3 mm 1 m/s 748 mmHg 64%
    19:00 +16°C° 0.3 mm 1 m/s 747 mmHg 69%
    20:00 +14°C° 0.3 mm 0 m/s 747 mmHg 73%
    21:00 +13°C° 0 mm 0 m/s 747 mmHg 74%
    22:00 +13°C° 0 mm 0 m/s 747 mmHg 75%
    23:00 +14°C° 0 mm 1 m/s 747 mmHg 75%

    27 Avril, Samedi

    Heure Température Précipitation Vent Pression Humidité
    00:00 +14°C° 0 mm 1 m/s 747 mmHg 75%
    01:00 +14°C° 0 mm 1 m/s 747 mmHg 75%
    02:00 +14°C° 0 mm 1 m/s 746 mmHg 75%
    03:00 +14°C° 0 mm 2 m/s 746 mmHg 76%
    04:00 +14°C° 0 mm 2 m/s 746 mmHg 78%
    05:00 +13°C° 0 mm 2 m/s 746 mmHg 79%
    06:00 +15°C° 0 mm 2 m/s 746 mmHg 75%
    07:00 +16°C° 0 mm 3 m/s 745 mmHg 71%
    08:00 +18°C° 0 mm 3 m/s 745 mmHg 67%
    09:00 +19°C° 0 mm 3 m/s 745 mmHg 60%
    10:00 +20°C° 0 mm 4 m/s 745 mmHg 53%
    11:00 +21°C° 0 mm 5 m/s 744 mmHg 47%
    12:00 +21°C° 0 mm 5 m/s 744 mmHg 46%
    13:00 +22°C° 0 mm 5 m/s 744 mmHg 45%
    14:00 +22°C° 0 mm 5 m/s 743 mmHg 45%
    15:00 +21°C° 0 mm 4 m/s 743 mmHg 50%
    16:00 +20°C° 0 mm 4 m/s 742 mmHg 55%
    17:00 +19°C° 0 mm 3 m/s 742 mmHg 60%
    18:00 +18°C° 0 mm 3 m/s 742 mmHg 64%
    19:00 +16°C° 0 mm 3 m/s 742 mmHg 68%
    20:00 +14°C° 0 mm 3 m/s 742 mmHg 72%
    21:00 +14°C° 0 mm 3 m/s 741 mmHg 74%
    22:00 +13°C° 0 mm 3 m/s 741 mmHg 76%
    23:00 +12°C° 0 mm 3 m/s 741 mmHg 77%

    28 Avril, Dimanche

    Heure Température Précipitation Vent Pression Humidité
    00:00 +13°C° 0.4 mm 4 m/s 741 mmHg 80%
    01:00 +13°C° 0.4 mm 4 m/s 740 mmHg 82%
    02:00 +13°C° 0.4 mm 5 m/s 740 mmHg 84%
    03:00 +13°C° 0.3 mm 5 m/s 740 mmHg 86%
    04:00 +13°C° 0.3 mm 4 m/s 739 mmHg 87%
    05:00 +12°C° 0.3 mm 4 m/s 739 mmHg 89%
    06:00 +13°C° 0.4 mm 4 m/s 739 mmHg 87%
    07:00 +13°C° 0.4 mm 4 m/s 739 mmHg 84%
    08:00 +13°C° 0.4 mm 4 m/s 739 mmHg 82%
    09:00 +15°C° 0.1 mm 4 m/s 739 mmHg 77%
    10:00 +17°C° 0.1 mm 4 m/s 739 mmHg 71%
    11:00 +19°C° 0.1 mm 4 m/s 739 mmHg 66%
    12:00 +20°C° 0 mm 4 m/s 739 mmHg 62%
    13:00 +21°C° 0 mm 4 m/s 739 mmHg 57%
    14:00 +22°C° 0 mm 4 m/s 738 mmHg 53%
    15:00 +21°C° 0.4 mm 4 m/s 738 mmHg 58%
    16:00 +20°C° 0.4 mm 3 m/s 738 mmHg 64%
    17:00 +20°C° 0.4 mm 2 m/s 738 mmHg 69%
    18:00 +18°C° 0.7 mm 2 m/s 738 mmHg 75%
    19:00 +18°C° 0.7 mm 1 m/s 738 mmHg 81%
    20:00 +15°C° 0.7 mm 1 m/s 738 mmHg 87%
    21:00 +15°C° 0.5 mm 1 m/s 738 mmHg 88%
    22:00 +15°C° 0.5 mm 1 m/s 738 mmHg 88%
    23:00 +15°C° 0.5 mm 1 m/s 738 mmHg 89%
    Voir plus